Vertical_Velocity
-3 1 -3 -2 -1 -1 7 9 1 -0 25 10 9 -5 6 5 -1 0 0 3 -1 20
-4 -2 -5 2 -1 -0 -8 8 8 2 6 -4 13 -4 3 -5 -5 -1 -9 14 -4 8
0 2 -7 2 3 -5 -4 -1 17 2 12 7 -15 -1 -1 7 -9 -2 3 18 -11 4
2 -1 7 -2 0 -3 1 7 22 4 7 20 -0 13 4 -10 4 1 2 -4 31 18
-4 0 0 -4 -7 0 7 4 -0 3 15 13 24 7 -3 -1 10 -4 0 11 4 3
-2 -1 -3 -3 -7 -4 8 -0 -2 4 8 2 5 2 -3 20 -2 16 3 1 3 -2
0 -1 1 2 -2 -1 -6 -11 -11 -6 12 4 7 2 14 -5 4 8 -1 13 8 -5
-3 -1 -2 0 4 6 -3 7 4 9 -1 -6 10 7 8 1 9 -2 10 9 -3 5
-0 2 1 -5 -2 3 2 4 -1 -4 5 7 12 21 6 -3 17 17 -13 -14 -8 23
-1 1 -1 1 5 -8 -3 -7 4 9 -7 1 9 8 6 13 16 -6 13 11 1 10
-2 -5 -6 0 -4 -2 0 -7 -8 -1 9 4 14 1 8 16 4 -20 33 -7 -1 -0
-2 -3 1 3 1 -3 7 -3 4 8 -5 6 0 6 19 17 8 -0 5 24 -2 -5
-1 3 1 2 -7 1 -1 -5 -0 -6 -1 -1 4 -1 1 7 -6 8 24 -2 24 -4
-2 -1 -4 -3 -4 -5 -3 3 3 -5 3 8 5 5 10 3 10 7 -1 1 -7 15
Height
2969 2967 2967 2966 2967 2970 2972 2982 2991 2997 3003 3009 3018 3025 3031 3037 3043 3048 3055 3061 3064 3070
2962 2960 2959 2957 2958 2959 2962 2965 2974 2983 2989 2996 3005 3013 3021 3026 3033 3040 3047 3051 3058 3062
2955 2952 2950 2948 2948 2949 2952 2952 2955 2969 2975 2981 2995 3002 3011 3015 3022 3030 3037 3043 3049 3055
2948 2944 2940 2938 2938 2939 2942 2942 2941 2949 2961 2969 2980 2989 3000 3006 3012 3020 3028 3033 3039 3046
2942 2938 2933 2932 2931 2928 2930 2933 2935 2937 2947 2954 2961 2975 2985 2994 3002 3010 3017 3024 3030 3036
2937 2933 2929 2926 2925 2924 2923 2925 2927 2927 2932 2941 2950 2961 2971 2979 2992 2998 3007 3016 3022 3029
2931 2927 2924 2920 2919 2916 2915 2916 2920 2922 2922 2930 2937 2948 2958 2967 2978 2989 2997 3003 3012 3020
2926 2922 2918 2915 2913 2912 2910 2910 2912 2912 2916 2922 2927 2935 2944 2953 2965 2977 2986 2994 3003 3010
2920 2916 2912 2908 2905 2902 2901 2901 2902 2904 2908 2912 2915 2922 2930 2940 2950 2963 2976 2985 2992 3000
2916 2912 2908 2904 2902 2901 2899 2897 2897 2898 2901 2905 2907 2910 2921 2931 2937 2948 2961 2972 2980 2990
2913 2909 2906 2903 2898 2896 2893 2891 2891 2894 2895 2896 2900 2906 2915 2920 2929 2942 2948 2961 2970 2981
2910 2906 2903 2899 2896 2893 2891 2889 2892 2886 2887 2888 2892 2898 2904 2910 2919 2930 2938 2946 2958 2970
2906 2903 2899 2894 2892 2889 2884 2884 2884 2884 2884 2887 2889 2891 2899 2901 2911 2920 2928 2937 2944 2959
2905 2900 2897 2894 2894 2893 2892 2888 2884 2884 2882 2883 2883 2885 2890 2896 2903 2909 2917 2928 2937 2946